owner,sensor,date,latitude,longitude,vertical_datum,wind_speed,wind_to_direction,wind_speed_of_gust,qcFlag 
WAVCIS,ioos:station:WAVCIS:CSI03:3,2010-09-01T00:00:00Z,29.4412,-92.0613,10.0,5.961,144.0,,'11111222,11111222,99999999' 
WAVCIS,ioos:station:WAVCIS:CSI03:3,2010-09-01T01:00:00Z,29.4412,-92.0613,10.0,7.89,105.0,,'11111222,11111222,99999999' 
WAVCIS,ioos:station:WAVCIS:CSI03:3,2010-09-01T02:00:00Z,29.4412,-92.0613,10.0,6.324,112.0,,'11111222,11111222,99999999' 
WAVCIS,ioos:station:WAVCIS:CSI03:3,2010-09-01T03:00:00Z,29.4412,-92.0613,10.0,5.557,94.0,,'11111222,11111222,99999999' 
WAVCIS,ioos:station:WAVCIS:CSI03:3,2010-09-01T04:00:00Z,29.4412,-92.0613,10.0,8.0,113.0,,'11111222,11111222,99999999' 
WAVCIS,ioos:station:WAVCIS:CSI03:3,2010-09-01T05:00:00Z,29.4412,-92.0613,10.0,8.16,113.0,,'11111222,11111222,99999999' 
WAVCIS,ioos:station:WAVCIS:CSI03:3,2010-09-01T06:00:00Z,29.4412,-92.0613,10.0,7.6,116.0,,'11111222,11111222,99999999' 
WAVCIS,ioos:station:WAVCIS:CSI03:3,2010-09-01T07:00:00Z,29.4412,-92.0613,10.0,6.989,117.0,,'11111222,11111222,99999999' 
WAVCIS,ioos:station:WAVCIS:CSI03:3,2010-09-01T08:00:00Z,29.4412,-92.0613,10.0,6.619,113.0,,'11111222,11111222,99999999' 
WAVCIS,ioos:station:WAVCIS:CSI03:3,2010-09-01T09:00:00Z,29.4412,-92.0613,10.0,6.384,112.0,,'11111222,11111222,99999999' 
WAVCIS,ioos:station:WAVCIS:CSI03:3,2010-09-01T10:00:00Z,29.4412,-92.0613,10.0,6.669,104.0,,'11111222,11111222,99999999' 
WAVCIS,ioos:station:WAVCIS:CSI03:3,2010-09-01T11:00:00Z,29.4412,-92.0613,10.0,7.32,99.0,,'11111222,11111222,99999999' 
WAVCIS,ioos:station:WAVCIS:CSI03:3,2010-09-01T12:00:00Z,29.4412,-92.0613,10.0,7.62,83.0,,'11111222,11111222,99999999' 
WAVCIS,ioos:station:WAVCIS:CSI03:3,2010-09-01T13:00:00Z,29.4412,-92.0613,10.0,7.65,96.0,,'11111222,11111222,99999999' 
WAVCIS,ioos:station:WAVCIS:CSI03:3,2010-09-01T14:00:00Z,29.4412,-92.0613,10.0,7.34,85.0,,'11111222,11111222,99999999' 
WAVCIS,ioos:station:WAVCIS:CSI03:3,2010-09-01T15:00:00Z,29.4412,-92.0613,10.0,7.62,99.0,,'11111222,11111222,99999999' 
WAVCIS,ioos:station:WAVCIS:CSI03:3,2010-09-01T16:00:00Z,29.4412,-92.0613,10.0,8.11,114.0,,'11111222,11111222,99999999' 
WAVCIS,ioos:station:WAVCIS:CSI03:3,2010-09-01T17:00:00Z,29.4412,-92.0613,10.0,7.95,111.0,,'11111222,11111222,99999999' 
WAVCIS,ioos:station:WAVCIS:CSI03:3,2010-09-01T18:00:00Z,29.4412,-92.0613,10.0,6.841,114.0,,'11111222,11111222,99999999' 
WAVCIS,ioos:station:WAVCIS:CSI03:3,2010-09-01T19:00:00Z,29.4412,-92.0613,10.0,5.346,128.0,,'11111222,11111222,99999999' 
WAVCIS,ioos:station:WAVCIS:CSI03:3,2010-09-01T20:00:00Z,29.4412,-92.0613,10.0,5.852,137.0,,'11111222,11111222,99999999' 
WAVCIS,ioos:station:WAVCIS:CSI03:3,2010-09-01T21:00:00Z,29.4412,-92.0613,10.0,4.986,141.0,,'11111222,11111222,99999999' 
WAVCIS,ioos:station:WAVCIS:CSI03:3,2010-09-01T22:00:00Z,29.4412,-92.0613,10.0,6.182,130.0,,'11111222,11111222,99999999' 
WAVCIS,ioos:station:WAVCIS:CSI03:3,2010-09-01T23:00:00Z,29.4412,-92.0613,10.0,6.526,143.0,,'11111222,11111222,99999999' 
WAVCIS,ioos:station:WAVCIS:CSI03:3,2010-09-02T00:00:00Z,29.4412,-92.0613,10.0,5.925,142.0,,'11111222,11111222,99999999' 
WAVCIS,ioos:station:WAVCIS:CSI03:3,2010-09-02T01:00:00Z,29.4412,-92.0613,10.0,7.0,137.0,,'11111222,11111222,99999999' 
WAVCIS,ioos:station:WAVCIS:CSI03:3,2010-09-02T02:00:00Z,29.4412,-92.0613,10.0,7.01,137.0,,'11111222,11111222,99999999' 
WAVCIS,ioos:station:WAVCIS:CSI03:3,2010-09-02T03:00:00Z,29.4412,-92.0613,10.0,7.42,130.0,,'11111222,11111222,99999999' 
WAVCIS,ioos:station:WAVCIS:CSI03:3,2010-09-02T04:00:00Z,29.4412,-92.0613,10.0,7.03,123.0,,'11111222,11111222,99999999' 
WAVCIS,ioos:station:WAVCIS:CSI03:3,2010-09-02T05:00:00Z,29.4412,-92.0613,10.0,7.89,114.0,,'11111222,11111222,99999999' 
WAVCIS,ioos:station:WAVCIS:CSI03:3,2010-09-02T06:00:00Z,29.4412,-92.0613,10.0,6.863,118.0,,'11111222,11111222,99999999' 
WAVCIS,ioos:station:WAVCIS:CSI03:3,2010-09-02T07:00:00Z,29.4412,-92.0613,10.0,6.585,110.0,,'11111222,11111222,99999999' 
WAVCIS,ioos:station:WAVCIS:CSI03:3,2010-09-02T08:00:00Z,29.4412,-92.0613,10.0,7.58,105.0,,'11111222,11111222,99999999' 
WAVCIS,ioos:station:WAVCIS:CSI03:3,2010-09-02T09:00:00Z,29.4412,-92.0613,10.0,7.14,119.0,,'11111222,11111222,99999999' 
WAVCIS,ioos:station:WAVCIS:CSI03:3,2010-09-02T10:00:00Z,29.4412,-92.0613,10.0,6.493,119.0,,'11111222,11111222,99999999' 
WAVCIS,ioos:station:WAVCIS:CSI03:3,2010-09-02T11:00:00Z,29.4412,-92.0613,10.0,6.919,105.0,,'11111222,11111222,99999999' 
WAVCIS,ioos:station:WAVCIS:CSI03:3,2010-09-02T12:00:00Z,29.4412,-92.0613,10.0,6.999,111.0,,'11111222,11111222,99999999' 
WAVCIS,ioos:station:WAVCIS:CSI03:3,2010-09-02T13:00:00Z,29.4412,-92.0613,10.0,3.183,166.0,,'11111222,11111222,99999999' 
WAVCIS,ioos:station:WAVCIS:CSI03:3,2010-09-02T14:00:00Z,29.4412,-92.0613,10.0,6.452,106.0,,'11111222,11111222,99999999' 
WAVCIS,ioos:station:WAVCIS:CSI03:3,2010-09-02T15:00:00Z,29.4412,-92.0613,10.0,5.13,133.0,,'11111222,11111222,99999999' 
WAVCIS,ioos:station:WAVCIS:CSI03:3,2010-09-02T16:00:00Z,29.4412,-92.0613,10.0,4.913,105.0,,'11111222,11111222,99999999' 
WAVCIS,ioos:station:WAVCIS:CSI03:3,2010-09-02T17:00:00Z,29.4412,-92.0613,10.0,7.22,125.0,,'11111222,11111222,99999999' 
WAVCIS,ioos:station:WAVCIS:CSI03:3,2010-09-02T18:00:00Z,29.4412,-92.0613,10.0,6.483,126.0,,'11111222,11111222,99999999' 
WAVCIS,ioos:station:WAVCIS:CSI03:3,2010-09-02T19:00:00Z,29.4412,-92.0613,10.0,7.06,132.0,,'11111222,11111222,99999999' 
WAVCIS,ioos:station:WAVCIS:CSI03:3,2010-09-02T20:00:00Z,29.4412,-92.0613,10.0,6.877,138.0,,'11111222,11111222,99999999' 
WAVCIS,ioos:station:WAVCIS:CSI03:3,2010-09-02T21:00:00Z,29.4412,-92.0613,10.0,6.392,139.0,,'11111222,11111222,99999999' 
WAVCIS,ioos:station:WAVCIS:CSI03:3,2010-09-02T22:00:00Z,29.4412,-92.0613,10.0,5.671,135.0,,'11111222,11111222,99999999' 
WAVCIS,ioos:station:WAVCIS:CSI03:3,2010-09-02T23:00:00Z,29.4412,-92.0613,10.0,5.7,142.0,,'11111222,11111222,99999999' 
WAVCIS,ioos:station:WAVCIS:CSI03:3,2010-09-03T00:00:00Z,29.4412,-92.0613,10.0,6.338,148.0,,'11111222,11111222,99999999' 
WAVCIS,ioos:station:WAVCIS:CSI03:3,2010-09-03T01:00:00Z,29.4412,-92.0613,10.0,6.775,147.0,,'11111222,11111222,99999999' 
WAVCIS,ioos:station:WAVCIS:CSI03:3,2010-09-03T02:00:00Z,29.4412,-92.0613,10.0,6.298,151.0,,'11111222,11111222,99999999' 
WAVCIS,ioos:station:WAVCIS:CSI03:3,2010-09-03T03:00:00Z,29.4412,-92.0613,10.0,7.23,143.0,,'11111222,11111222,99999999' 
WAVCIS,ioos:station:WAVCIS:CSI03:3,2010-09-03T04:00:00Z,29.4412,-92.0613,10.0,6.672,140.0,,'11111222,11111222,99999999' 
WAVCIS,ioos:station:WAVCIS:CSI03:3,2010-09-03T05:00:00Z,29.4412,-92.0613,10.0,6.693,148.0,,'11111222,11111222,99999999' 
WAVCIS,ioos:station:WAVCIS:CSI03:3,2010-09-03T06:00:00Z,29.4412,-92.0613,10.0,6.345,161.0,,'11111222,11111222,99999999' 
WAVCIS,ioos:station:WAVCIS:CSI03:3,2010-09-03T07:00:00Z,29.4412,-92.0613,10.0,5.475,164.0,,'11111222,11111222,99999999' 
WAVCIS,ioos:station:WAVCIS:CSI03:3,2010-09-03T08:00:00Z,29.4412,-92.0613,10.0,4.066,163.0,,'11111222,11111222,99999999' 
WAVCIS,ioos:station:WAVCIS:CSI03:3,2010-09-03T09:00:00Z,29.4412,-92.0613,10.0,4.92,178.0,,'11111222,11111222,99999999' 
WAVCIS,ioos:station:WAVCIS:CSI03:3,2010-09-03T10:00:00Z,29.4412,-92.0613,10.0,3.451,151.0,,'11111222,11111222,99999999' 
WAVCIS,ioos:station:WAVCIS:CSI03:3,2010-09-03T11:00:00Z,29.4412,-92.0613,10.0,3.191,140.0,,'11111222,11111222,99999999' 
WAVCIS,ioos:station:WAVCIS:CSI03:3,2010-09-03T12:00:00Z,29.4412,-92.0613,10.0,2.248,75.0,,'11111222,11111222,99999999' 
WAVCIS,ioos:station:WAVCIS:CSI03:3,2010-09-03T13:00:00Z,29.4412,-92.0613,10.0,3.601,59.0,,'11111222,11111222,99999999' 
WAVCIS,ioos:station:WAVCIS:CSI03:3,2010-09-03T14:00:00Z,29.4412,-92.0613,10.0,5.113,59.0,,'11111222,11111222,99999999' 
WAVCIS,ioos:station:WAVCIS:CSI03:3,2010-09-03T15:00:00Z,29.4412,-92.0613,10.0,3.969,70.0,,'11111222,11111222,99999999' 
WAVCIS,ioos:station:WAVCIS:CSI03:3,2010-09-03T16:00:00Z,29.4412,-92.0613,10.0,2.69,87.0,,'11111222,11111222,99999999' 
WAVCIS,ioos:station:WAVCIS:CSI03:3,2010-09-03T17:00:00Z,29.4412,-92.0613,10.0,1.924,108.0,,'11111222,11111222,99999999' 
WAVCIS,ioos:station:WAVCIS:CSI03:3,2010-09-03T18:00:00Z,29.4412,-92.0613,10.0,2.156,113.0,,'11111222,11111222,99999999' 
WAVCIS,ioos:station:WAVCIS:CSI03:3,2010-09-03T19:00:00Z,29.4412,-92.0613,10.0,2.381,117.0,,'11111222,11111222,99999999' 
WAVCIS,ioos:station:WAVCIS:CSI03:3,2010-09-03T20:00:00Z,29.4412,-92.0613,10.0,3.102,112.0,,'11111222,11111222,99999999' 
WAVCIS,ioos:station:WAVCIS:CSI03:3,2010-09-03T21:00:00Z,29.4412,-92.0613,10.0,2.932,113.0,,'11111222,11111222,99999999' 
WAVCIS,ioos:station:WAVCIS:CSI03:3,2010-09-03T22:00:00Z,29.4412,-92.0613,10.0,3.748,136.0,,'11111222,11111222,99999999' 
WAVCIS,ioos:station:WAVCIS:CSI03:3,2010-09-03T23:00:00Z,29.4412,-92.0613,10.0,3.337,168.0,,'11111222,11111222,99999999' 
WAVCIS,ioos:station:WAVCIS:CSI03:3,2010-09-04T00:00:00Z,29.4412,-92.0613,10.0,1.879,184.0,,'11111222,11111222,99999999' 
WAVCIS,ioos:station:WAVCIS:CSI03:3,2010-09-04T01:00:00Z,29.4412,-92.0613,10.0,3.962,176.0,,'11111222,11111222,99999999' 
WAVCIS,ioos:station:WAVCIS:CSI03:3,2010-09-04T02:00:00Z,29.4412,-92.0613,10.0,3.095,180.0,,'11111222,11111222,99999999' 
WAVCIS,ioos:station:WAVCIS:CSI03:3,2010-09-04T03:00:00Z,29.4412,-92.0613,10.0,2.439,179.0,,'11111222,11111222,99999999' 
WAVCIS,ioos:station:WAVCIS:CSI03:3,2010-09-04T04:00:00Z,29.4412,-92.0613,10.0,3.34,174.0,,'11111222,11111222,99999999' 
WAVCIS,ioos:station:WAVCIS:CSI03:3,2010-09-04T05:00:00Z,29.4412,-92.0613,10.0,1.693,175.0,,'11111222,11111222,99999999' 
WAVCIS,ioos:station:WAVCIS:CSI03:3,2010-09-04T06:00:00Z,29.4412,-92.0613,10.0,1.18,161.0,,'11111222,11111222,99999999' 
WAVCIS,ioos:station:WAVCIS:CSI03:3,2010-09-04T07:00:00Z,29.4412,-92.0613,10.0,0.314,331.0,,'11111222,11111222,99999999' 
WAVCIS,ioos:station:WAVCIS:CSI03:3,2010-09-04T08:00:00Z,29.4412,-92.0613,10.0,1.314,356.0,,'11111222,11111222,99999999' 
WAVCIS,ioos:station:WAVCIS:CSI03:3,2010-09-04T09:00:00Z,29.4412,-92.0613,10.0,0.806,3.0,,'11111222,11111222,99999999' 
WAVCIS,ioos:station:WAVCIS:CSI03:3,2010-09-04T10:00:00Z,29.4412,-92.0613,10.0,1.876,11.0,,'11111222,11111222,99999999' 
WAVCIS,ioos:station:WAVCIS:CSI03:3,2010-09-04T11:00:00Z,29.4412,-92.0613,10.0,2.814,9.0,,'11111222,11111222,99999999' 
WAVCIS,ioos:station:WAVCIS:CSI03:3,2010-09-04T12:00:00Z,29.4412,-92.0613,10.0,4.508,12.0,,'11111222,11111222,99999999' 
WAVCIS,ioos:station:WAVCIS:CSI03:3,2010-09-04T13:00:00Z,29.4412,-92.0613,10.0,6.599,56.0,,'11111222,11111222,99999999' 
WAVCIS,ioos:station:WAVCIS:CSI03:3,2010-09-04T14:00:00Z,29.4412,-92.0613,10.0,8.47,58.0,,'11111222,11111222,99999999' 
WAVCIS,ioos:station:WAVCIS:CSI03:3,2010-09-04T15:00:00Z,29.4412,-92.0613,10.0,7.77,62.0,,'11111222,11111222,99999999' 
WAVCIS,ioos:station:WAVCIS:CSI03:3,2010-09-04T16:00:00Z,29.4412,-92.0613,10.0,6.602,63.0,,'11111222,11111222,99999999' 
WAVCIS,ioos:station:WAVCIS:CSI03:3,2010-09-04T17:00:00Z,29.4412,-92.0613,10.0,6.214,59.0,,'11111222,11111222,99999999' 
WAVCIS,ioos:station:WAVCIS:CSI03:3,2010-09-04T18:00:00Z,29.4412,-92.0613,10.0,5.443,60.0,,'11111222,11111222,99999999' 
WAVCIS,ioos:station:WAVCIS:CSI03:3,2010-09-04T19:00:00Z,29.4412,-92.0613,10.0,5.58,76.0,,'11111222,11111222,99999999' 
WAVCIS,ioos:station:WAVCIS:CSI03:3,2010-09-04T20:00:00Z,29.4412,-92.0613,10.0,4.568,77.0,,'11111222,11111222,99999999' 
WAVCIS,ioos:station:WAVCIS:CSI03:3,2010-09-04T21:00:00Z,29.4412,-92.0613,10.0,4.0,112.0,,'11111222,11111222,99999999' 
WAVCIS,ioos:station:WAVCIS:CSI03:3,2010-09-04T22:00:00Z,29.4412,-92.0613,10.0,3.107,111.0,,'11111222,11111222,99999999' 
WAVCIS,ioos:station:WAVCIS:CSI03:3,2010-09-04T23:00:00Z,29.4412,-92.0613,10.0,2.941,126.0,,'11111222,11111222,99999999' 
WAVCIS,ioos:station:WAVCIS:CSI03:3,2010-09-05T00:00:00Z,29.4412,-92.0613,10.0,4.581,39.0,,'11111222,11111222,99999999' 
WAVCIS,ioos:station:WAVCIS:CSI03:3,2010-09-05T01:00:00Z,29.4412,-92.0613,10.0,5.828,64.0,,'11111222,11111222,99999999' 
WAVCIS,ioos:station:WAVCIS:CSI03:3,2010-09-05T02:00:00Z,29.4412,-92.0613,10.0,6.202,76.0,,'11111222,11111222,99999999' 
WAVCIS,ioos:station:WAVCIS:CSI03:3,2010-09-05T03:00:00Z,29.4412,-92.0613,10.0,4.776,60.0,,'11111222,11111222,99999999' 
WAVCIS,ioos:station:WAVCIS:CSI03:3,2010-09-05T04:00:00Z,29.4412,-92.0613,10.0,5.912,74.0,,'11111222,11111222,99999999' 
WAVCIS,ioos:station:WAVCIS:CSI03:3,2010-09-05T05:00:00Z,29.4412,-92.0613,10.0,6.215,71.0,,'11111222,11111222,99999999' 
WAVCIS,ioos:station:WAVCIS:CSI03:3,2010-09-05T06:00:00Z,29.4412,-92.0613,10.0,6.202,76.0,,'11111222,11111222,99999999' 
WAVCIS,ioos:station:WAVCIS:CSI03:3,2010-09-05T07:00:00Z,29.4412,-92.0613,10.0,5.944,70.0,,'11111222,11111222,99999999' 
WAVCIS,ioos:station:WAVCIS:CSI03:3,2010-09-05T08:00:00Z,29.4412,-92.0613,10.0,6.628,61.0,,'11111222,11111222,99999999' 
WAVCIS,ioos:station:WAVCIS:CSI03:3,2010-09-05T09:00:00Z,29.4412,-92.0613,10.0,7.69,73.0,,'11111222,11111222,99999999' 
WAVCIS,ioos:station:WAVCIS:CSI03:3,2010-09-05T10:00:00Z,29.4412,-92.0613,10.0,7.87,67.0,,'11111222,11111222,99999999' 
WAVCIS,ioos:station:WAVCIS:CSI03:3,2010-09-05T11:00:00Z,29.4412,-92.0613,10.0,8.65,75.0,,'11111222,11111222,99999999' 
WAVCIS,ioos:station:WAVCIS:CSI03:3,2010-09-05T12:00:00Z,29.4412,-92.0613,10.0,8.77,81.0,,'11111222,11111222,99999999' 
WAVCIS,ioos:station:WAVCIS:CSI03:3,2010-09-05T13:00:00Z,29.4412,-92.0613,10.0,9.15,91.0,,'11111222,11111222,99999999' 
WAVCIS,ioos:station:WAVCIS:CSI03:3,2010-09-05T14:00:00Z,29.4412,-92.0613,10.0,8.37,98.0,,'11111222,11111222,99999999' 
WAVCIS,ioos:station:WAVCIS:CSI03:3,2010-09-05T15:00:00Z,29.4412,-92.0613,10.0,8.07,103.0,,'11111222,11111222,99999999' 
WAVCIS,ioos:station:WAVCIS:CSI03:3,2010-09-05T16:00:00Z,29.4412,-92.0613,10.0,6.954,99.0,,'11111222,11111222,99999999' 
WAVCIS,ioos:station:WAVCIS:CSI03:3,2010-09-05T17:00:00Z,29.4412,-92.0613,10.0,6.553,107.0,,'11111222,11111222,99999999' 
WAVCIS,ioos:station:WAVCIS:CSI03:3,2010-09-05T18:00:00Z,29.4412,-92.0613,10.0,6.529,112.0,,'11111222,11111222,99999999' 
WAVCIS,ioos:station:WAVCIS:CSI03:3,2010-09-05T19:00:00Z,29.4412,-92.0613,10.0,6.315,129.0,,'11111222,11111222,99999999' 
WAVCIS,ioos:station:WAVCIS:CSI03:3,2010-09-05T20:00:00Z,29.4412,-92.0613,10.0,5.442,132.0,,'11111222,11111222,99999999' 
WAVCIS,ioos:station:WAVCIS:CSI03:3,2010-09-05T21:00:00Z,29.4412,-92.0613,10.0,4.695,135.0,,'11111222,11111222,99999999' 
WAVCIS,ioos:station:WAVCIS:CSI03:3,2010-09-05T22:00:00Z,29.4412,-92.0613,10.0,4.984,114.0,,'11111222,11111222,99999999' 
WAVCIS,ioos:station:WAVCIS:CSI03:3,2010-09-05T23:00:00Z,29.4412,-92.0613,10.0,5.549,115.0,,'11111222,11111222,99999999' 
WAVCIS,ioos:station:WAVCIS:CSI03:3,2010-09-06T00:00:00Z,29.4412,-92.0613,10.0,6.133,126.0,,'11111222,11111222,99999999' 
WAVCIS,ioos:station:WAVCIS:CSI03:3,2010-09-06T01:00:00Z,29.4412,-92.0613,10.0,6.593,140.0,,'11111222,11111222,99999999' 
WAVCIS,ioos:station:WAVCIS:CSI03:3,2010-09-06T02:00:00Z,29.4412,-92.0613,10.0,6.513,146.0,,'11111222,11111222,99999999' 
WAVCIS,ioos:station:WAVCIS:CSI03:3,2010-09-06T03:00:00Z,29.4412,-92.0613,10.0,6.286,142.0,,'11111222,11111222,99999999' 
WAVCIS,ioos:station:WAVCIS:CSI03:3,2010-09-06T04:00:00Z,29.4412,-92.0613,10.0,6.674,144.0,,'11111222,11111222,99999999' 
WAVCIS,ioos:station:WAVCIS:CSI03:3,2010-09-06T05:00:00Z,29.4412,-92.0613,10.0,6.59,137.0,,'11111222,11111222,99999999' 
WAVCIS,ioos:station:WAVCIS:CSI03:3,2010-09-06T06:00:00Z,29.4412,-92.0613,10.0,7.36,149.0,,'11111222,11111222,99999999' 
WAVCIS,ioos:station:WAVCIS:CSI03:3,2010-09-06T07:00:00Z,29.4412,-92.0613,10.0,7.5,150.0,,'11111222,11111222,99999999' 
WAVCIS,ioos:station:WAVCIS:CSI03:3,2010-09-06T08:00:00Z,29.4412,-92.0613,10.0,7.72,154.0,,'11111222,11111222,99999999' 
WAVCIS,ioos:station:WAVCIS:CSI03:3,2010-09-06T09:00:00Z,29.4412,-92.0613,10.0,6.947,147.0,,'11111222,11111222,99999999' 
WAVCIS,ioos:station:WAVCIS:CSI03:3,2010-09-06T10:00:00Z,29.4412,-92.0613,10.0,8.3,150.0,,'11111222,11111222,99999999' 
WAVCIS,ioos:station:WAVCIS:CSI03:3,2010-09-06T11:00:00Z,29.4412,-92.0613,10.0,7.56,138.0,,'11111222,11111222,99999999' 
WAVCIS,ioos:station:WAVCIS:CSI03:3,2010-09-06T12:00:00Z,29.4412,-92.0613,10.0,7.21,135.0,,'11111222,11111222,99999999' 
WAVCIS,ioos:station:WAVCIS:CSI03:3,2010-09-06T13:00:00Z,29.4412,-92.0613,10.0,8.31,131.0,,'11111222,11111222,99999999' 
WAVCIS,ioos:station:WAVCIS:CSI03:3,2010-09-06T14:00:00Z,29.4412,-92.0613,10.0,8.59,155.0,,'11111222,11111222,99999999' 
WAVCIS,ioos:station:WAVCIS:CSI03:3,2010-09-06T15:00:00Z,29.4412,-92.0613,10.0,8.55,118.0,,'11111222,11111222,99999999' 
WAVCIS,ioos:station:WAVCIS:CSI03:3,2010-09-06T16:00:00Z,29.4412,-92.0613,10.0,7.97,134.0,,'11111222,11111222,99999999' 
WAVCIS,ioos:station:WAVCIS:CSI03:3,2010-09-06T17:00:00Z,29.4412,-92.0613,10.0,4.783,191.0,,'11111222,11111222,99999999' 
WAVCIS,ioos:station:WAVCIS:CSI03:3,2010-09-06T18:00:00Z,29.4412,-92.0613,10.0,6.833,182.0,,'11111222,11111222,99999999' 
WAVCIS,ioos:station:WAVCIS:CSI03:3,2010-09-06T19:00:00Z,29.4412,-92.0613,10.0,4.54,187.0,,'11111222,11111222,99999999' 
WAVCIS,ioos:station:WAVCIS:CSI03:3,2010-09-06T20:00:00Z,29.4412,-92.0613,10.0,5.466,169.0,,'11111222,11111222,99999999' 
WAVCIS,ioos:station:WAVCIS:CSI03:3,2010-09-06T21:00:00Z,29.4412,-92.0613,10.0,5.318,158.0,,'11111222,11111222,99999999' 
WAVCIS,ioos:station:WAVCIS:CSI03:3,2010-09-06T22:00:00Z,29.4412,-92.0613,10.0,5.254,154.0,,'11111222,11111222,99999999' 
WAVCIS,ioos:station:WAVCIS:CSI03:3,2010-09-06T23:00:00Z,29.4412,-92.0613,10.0,4.275,133.0,,'11111222,11111222,99999999' 
WAVCIS,ioos:station:WAVCIS:CSI03:3,2010-09-07T00:00:00Z,29.4412,-92.0613,10.0,5.475,134.0,,'11111222,11111222,99999999' 
WAVCIS,ioos:station:WAVCIS:CSI03:3,2010-09-07T01:00:00Z,29.4412,-92.0613,10.0,7.02,128.0,,'11111222,11111222,99999999' 
WAVCIS,ioos:station:WAVCIS:CSI03:3,2010-09-07T02:00:00Z,29.4412,-92.0613,10.0,7.93,125.0,,'11111222,11111222,99999999' 
WAVCIS,ioos:station:WAVCIS:CSI03:3,2010-09-07T03:00:00Z,29.4412,-92.0613,10.0,9.54,126.0,,'11111222,11111222,99999999' 
WAVCIS,ioos:station:WAVCIS:CSI03:3,2010-09-07T04:00:00Z,29.4412,-92.0613,10.0,9.05,138.0,,'11111222,11111222,99999999' 
WAVCIS,ioos:station:WAVCIS:CSI03:3,2010-09-07T05:00:00Z,29.4412,-92.0613,10.0,10.58,144.0,,'11111222,11111222,99999999' 
WAVCIS,ioos:station:WAVCIS:CSI03:3,2010-09-07T06:00:00Z,29.4412,-92.0613,10.0,10.36,148.0,,'11111222,11111222,99999999' 
WAVCIS,ioos:station:WAVCIS:CSI03:3,2010-09-07T07:00:00Z,29.4412,-92.0613,10.0,10.66,149.0,,'11111222,11111222,99999999' 
WAVCIS,ioos:station:WAVCIS:CSI03:3,2010-09-07T08:00:00Z,29.4412,-92.0613,10.0,10.67,149.0,,'11111222,11111222,99999999' 
WAVCIS,ioos:station:WAVCIS:CSI03:3,2010-09-07T09:00:00Z,29.4412,-92.0613,10.0,11.02,150.0,,'11111222,11111222,99999999' 
WAVCIS,ioos:station:WAVCIS:CSI03:3,2010-09-07T10:00:00Z,29.4412,-92.0613,10.0,10.56,152.0,,'11111222,11111222,99999999' 
WAVCIS,ioos:station:WAVCIS:CSI03:3,2010-09-07T11:00:00Z,29.4412,-92.0613,10.0,10.47,151.0,,'11111222,11111222,99999999' 
WAVCIS,ioos:station:WAVCIS:CSI03:3,2010-09-07T12:00:00Z,29.4412,-92.0613,10.0,10.07,154.0,,'11111222,11111222,99999999' 
WAVCIS,ioos:station:WAVCIS:CSI03:3,2010-09-07T13:00:00Z,29.4412,-92.0613,10.0,9.06,154.0,,'11111222,11111222,99999999' 
WAVCIS,ioos:station:WAVCIS:CSI03:3,2010-09-07T14:00:00Z,29.4412,-92.0613,10.0,8.84,148.0,,'11111222,11111222,99999999' 
WAVCIS,ioos:station:WAVCIS:CSI03:3,2010-09-07T15:00:00Z,29.4412,-92.0613,10.0,7.93,145.0,,'11111222,11111222,99999999' 
WAVCIS,ioos:station:WAVCIS:CSI03:3,2010-09-07T16:00:00Z,29.4412,-92.0613,10.0,7.43,139.0,,'11111222,11111222,99999999' 
WAVCIS,ioos:station:WAVCIS:CSI03:3,2010-09-07T17:00:00Z,29.4412,-92.0613,10.0,8.13,135.0,,'11111222,11111222,99999999' 
WAVCIS,ioos:station:WAVCIS:CSI03:3,2010-09-07T18:00:00Z,29.4412,-92.0613,10.0,7.55,142.0,,'11111222,11111222,99999999' 
WAVCIS,ioos:station:WAVCIS:CSI03:3,2010-09-07T19:00:00Z,29.4412,-92.0613,10.0,7.77,138.0,,'11111222,11111222,99999999' 
WAVCIS,ioos:station:WAVCIS:CSI03:3,2010-09-07T20:00:00Z,29.4412,-92.0613,10.0,8.37,141.0,,'11111222,11111222,99999999' 
WAVCIS,ioos:station:WAVCIS:CSI03:3,2010-09-07T21:00:00Z,29.4412,-92.0613,10.0,8.58,145.0,,'11111222,11111222,99999999' 
WAVCIS,ioos:station:WAVCIS:CSI03:3,2010-09-07T22:00:00Z,29.4412,-92.0613,10.0,7.41,128.0,,'11111222,11111222,99999999' 
WAVCIS,ioos:station:WAVCIS:CSI03:3,2010-09-07T23:00:00Z,29.4412,-92.0613,10.0,7.96,139.0,,'11111222,11111222,99999999' 
WAVCIS,ioos:station:WAVCIS:CSI03:3,2010-09-08T00:00:00Z,29.4412,-92.0613,10.0,6.996,138.0,,'11111222,11111222,99999999' 
WAVCIS,ioos:station:WAVCIS:CSI03:3,2010-09-08T01:00:00Z,29.4412,-92.0613,10.0,7.23,135.0,,'11111222,11111222,99999999' 
WAVCIS,ioos:station:WAVCIS:CSI03:3,2010-09-08T02:00:00Z,29.4412,-92.0613,10.0,8.45,130.0,,'11111222,11111222,99999999' 
WAVCIS,ioos:station:WAVCIS:CSI03:3,2010-09-08T03:00:00Z,29.4412,-92.0613,10.0,8.03,137.0,,'11111222,11111222,99999999' 
WAVCIS,ioos:station:WAVCIS:CSI03:3,2010-09-08T04:00:00Z,29.4412,-92.0613,10.0,8.47,135.0,,'11111222,11111222,99999999' 
WAVCIS,ioos:station:WAVCIS:CSI03:3,2010-09-08T05:00:00Z,29.4412,-92.0613,10.0,8.7,140.0,,'11111222,11111222,99999999' 
WAVCIS,ioos:station:WAVCIS:CSI03:3,2010-09-08T06:00:00Z,29.4412,-92.0613,10.0,8.24,143.0,,'11111222,11111222,99999999' 
WAVCIS,ioos:station:WAVCIS:CSI03:3,2010-09-08T07:00:00Z,29.4412,-92.0613,10.0,7.95,146.0,,'11111222,11111222,99999999' 
WAVCIS,ioos:station:WAVCIS:CSI03:3,2010-09-08T08:00:00Z,29.4412,-92.0613,10.0,8.6,149.0,,'11111222,11111222,99999999' 
WAVCIS,ioos:station:WAVCIS:CSI03:3,2010-09-08T09:00:00Z,29.4412,-92.0613,10.0,7.79,152.0,,'11111222,11111222,99999999' 
WAVCIS,ioos:station:WAVCIS:CSI03:3,2010-09-08T10:00:00Z,29.4412,-92.0613,10.0,7.31,155.0,,'11111222,11111222,99999999' 
WAVCIS,ioos:station:WAVCIS:CSI03:3,2010-09-08T11:00:00Z,29.4412,-92.0613,10.0,7.07,152.0,,'11111222,11111222,99999999' 
WAVCIS,ioos:station:WAVCIS:CSI03:3,2010-09-08T12:00:00Z,29.4412,-92.0613,10.0,6.225,147.0,,'11111222,11111222,99999999' 
WAVCIS,ioos:station:WAVCIS:CSI03:3,2010-09-08T13:00:00Z,29.4412,-92.0613,10.0,5.7,137.0,,'11111222,11111222,99999999' 
WAVCIS,ioos:station:WAVCIS:CSI03:3,2010-09-08T14:00:00Z,29.4412,-92.0613,10.0,5.412,143.0,,'11111222,11111222,99999999' 
WAVCIS,ioos:station:WAVCIS:CSI03:3,2010-09-08T15:00:00Z,29.4412,-92.0613,10.0,5.915,144.0,,'11111222,11111222,99999999' 
WAVCIS,ioos:station:WAVCIS:CSI03:3,2010-09-08T16:00:00Z,29.4412,-92.0613,10.0,6.285,144.0,,'11111222,11111222,99999999' 
WAVCIS,ioos:station:WAVCIS:CSI03:3,2010-09-08T17:00:00Z,29.4412,-92.0613,10.0,5.358,148.0,,'11111222,11111222,99999999' 
WAVCIS,ioos:station:WAVCIS:CSI03:3,2010-09-08T18:00:00Z,29.4412,-92.0613,10.0,6.754,144.0,,'11111222,11111222,99999999' 
WAVCIS,ioos:station:WAVCIS:CSI03:3,2010-09-08T19:00:00Z,29.4412,-92.0613,10.0,6.294,138.0,,'11111222,11111222,99999999' 
WAVCIS,ioos:station:WAVCIS:CSI03:3,2010-09-08T20:00:00Z,29.4412,-92.0613,10.0,6.021,143.0,,'11111222,11111222,99999999' 
WAVCIS,ioos:station:WAVCIS:CSI03:3,2010-09-08T21:00:00Z,29.4412,-92.0613,10.0,5.881,150.0,,'11111222,11111222,99999999' 
WAVCIS,ioos:station:WAVCIS:CSI03:3,2010-09-08T22:00:00Z,29.4412,-92.0613,10.0,6.172,145.0,,'11111222,11111222,99999999' 
WAVCIS,ioos:station:WAVCIS:CSI03:3,2010-09-08T23:00:00Z,29.4412,-92.0613,10.0,6.141,156.0,,'11111222,11111222,99999999' 
WAVCIS,ioos:station:WAVCIS:CSI03:3,2010-09-09T00:00:00Z,29.4412,-92.0613,10.0,6.125,161.0,,'11111222,11111222,99999999' 
WAVCIS,ioos:station:WAVCIS:CSI03:3,2010-09-09T01:00:00Z,29.4412,-92.0613,10.0,5.634,159.0,,'11111222,11111222,99999999' 
WAVCIS,ioos:station:WAVCIS:CSI03:3,2010-09-09T02:00:00Z,29.4412,-92.0613,10.0,5.57,159.0,,'11111222,11111222,99999999' 
WAVCIS,ioos:station:WAVCIS:CSI03:3,2010-09-09T03:00:00Z,29.4412,-92.0613,10.0,5.572,151.0,,'11111222,11111222,99999999' 
WAVCIS,ioos:station:WAVCIS:CSI03:3,2010-09-09T04:00:00Z,29.4412,-92.0613,10.0,6.067,147.0,,'11111222,11111222,99999999' 
WAVCIS,ioos:station:WAVCIS:CSI03:3,2010-09-09T05:00:00Z,29.4412,-92.0613,10.0,6.154,158.0,,'11111222,11111222,99999999' 